Regional Weather Roundup
Issued by NWS

Home | Current Version | Previous Version | Text Only | Print | Product List | Glossary On
Versions: 1 2 3 4 5 6 7 8 9 10 11 12 13 14 15 16 17 18 19 20 21 22 23 24 25 26 27 28 29 30 31 32 33 34 35 36 37 38 39 40 41 42 43 44 45 46 47 48 49 50
000
ASUS43 KMPX 240510
RWRMN
WEATHER ROUNDUP FOR MINNESOTA
NATIONAL WEATHER SERVICE TWIN CITIES/CHANHASSEN MN
1200 AM CDT THU AUG 24 2017


NOTE: "FAIR" INDICATES FEW OR NO CLOUDS BELOW 12,000 FEET WITH NO
SIGNIFICANT WEATHER AND/OR OBSTRUCTIONS TO VISIBILITY. N/A MEANS
CURRENT SKY AND/OR WEATHER CONDITIONS ARE NOT AVAILABLE.

MNZ060>063-068>070-240600-
   Twin Cities Metro

CITY           SKY/WX    TMP DP  RH WIND       PRES   REMARKS
TWIN CITIES    CLOUDY    65  51  60 E9        30.08R
ST PAUL        CLOUDY    64  54  69 E3        30.08R
CRYSTAL        CLOUDY    64  51  62 E3        30.07R
BLAINE         CLOUDY    64  55  72 E3        30.08R
LAKEVILLE      CLOUDY    55  55 100 CALM      30.08R
EDEN PRAIRIE   CLOUDY    63  55  75 E3        30.06R
SOUTH ST PAUL  CLOUDY    64  52  66 CALM      30.09R
LAKE ELMO      CLOUDY    61  54  77 CALM      30.09R
$$
MNZ001>005-007-008-013>017-022>024-027-028-240600-
   Northwest Minnesota

CITY           SKY/WX    TMP DP  RH WIND       PRES   REMARKS
BEMIDJI        PTCLDY    50  50 100 CALM      30.11R FOG
HALLOCK        CLEAR     48  46  93 E5        30.11S
ROSEAU         FOG       43  39  87 CALM      30.12S VSB 1/4
WARROAD        PTCLDY    48  45  87 N5        30.12S
THIEF RVR FALL CLOUDY    52  51  97 E9        30.11S
CROOKSTON      CLOUDY    55  54  94 SE7       30.09S
FOSSTON          N/A     52  50  93 E3        30.10S
DETROIT LAKES  PTCLDY    55  54  94 SE8       30.09F
MOORHEAD       HVY RAIN  59  54  82 SE10      30.04S
PARK RAPIDS    CLOUDY    56  54  93 SE5       30.10R
MAHNOMEN       FAIR      53  52  97 E6        30.09R
$$
MNZ006-009>011-018-025>026-240600-
   North Central Minnesota

CITY           SKY/WX    TMP DP  RH WIND       PRES   REMARKS
BAUDETTE       CLEAR     44  43  96 CALM      30.12S FOG
FLAG ISLAND    CLEAR     55  46  71 CALM      30.12R
INTL FALLS     FOG       41  39  93 CALM      30.12R VSB 1/2
WASKISH        FOG       45  43  93 CALM      30.12S VSB 3/4
BIG FORK       FOG       46  46 100 CALM      30.12R VSB 1/2
LONGVILLE      CLOUDY    54  52  94 CALM      30.10S
GRAND RAPIDS   PTCLDY    52  51  97 CALM      30.13R
CRANE LAKE     CLEAR     41  39  93 CALM      30.13S
ORR            CLEAR     48  45  87 CALM      30.10R
COOK           CLEAR     48  46  93 CALM      30.12S
WALKER         CLOUDY    51  51  98 CALM      30.10S FOG
$$
MNZ012-019>021-037-240600-
   Northeast Minnesota

CITY           SKY/WX    TMP DP  RH WIND       PRES   REMARKS
DULUTH         CLOUDY    53  52  96 N5        30.09S
ELY            CLEAR     45  45 100 CALM      30.11S
HIBBING        PTCLDY    49  49 100 NW3       30.10S
EVELETH        CLOUDY    53  48  83 CALM      30.12R
DULUTH HARBOR  CLOUDY    61  54  77 NW7       30.09S
TWO HARBORS    CLOUDY    57  54  88 VRB3      30.08R
SILVER BAY     CLOUDY    52  50  93 CALM      30.08S
GRAND MARAIS     N/A     54  39  57 N9        30.09S
G MARAIS ARPRT CLEAR     39  36  87 N6        30.12S
$$
MNZ029>031-032-039>041-046>048-054>057-064-240600-
   West Central Minnesota

CITY           SKY/WX    TMP DP  RH WIND       PRES   REMARKS
FERGUS FALLS   MOCLDY    61  50  67 E13G21    30.06R
WHEATON        MOCLDY    59  55  88 SE6       30.05R
MORRIS         MOCLDY    61  55  82 E7        30.04R
ALEXANDRIA     PTCLDY    60  51  72 E17G23    30.10R
ELBOW LAKE     FAIR      60  53  76 NE14G23   30.06S
WADENA         PTCLDY    55  52  88 E6        30.10S
GLENWOOD       PTCLDY    61  55  82 NE16      30.09R
APPLETON       MOCLDY    61  54  77 E7        30.03R
BENSON         CLEAR     63  54  72 E5        30.06R
ORTONVILLE     PTCLDY    61  54  77 MISG      30.02S
MADISON        CLEAR     61  61 100 E6        30.02S
WILLMAR        MOCLDY    63  55  77 E5        30.06S
$$
MNZ033>034-036-042>043-049>051-058-059-240600-
   Central Minnesota

CITY           SKY/WX    TMP DP  RH WIND       PRES   REMARKS
ST CLOUD       CLOUDY    60  51  72 NE15G21   30.11R
SAUK CENTRE    FAIR      60  50  70 E17G26    30.10R
PAYNESVILLE    CLOUDY    62  56  82 NE7       30.09R
AITKIN         CLOUDY    52  50  93 CALM      30.10S FOG
PINE RIVER     CLOUDY    52  52 100 CALM      30.13F
BRAINERD       LGT RAIN  53  53 100 S5        30.11F
STAPLES        MOCLDY    54  52  94 CALM      30.10F
LONG PRAIRIE   CLOUDY    57  50  77 NE8       30.11F
LITTLE FALLS   DRIZZLE   57  50  77 E6        30.11F
LITCHFIELD     PTCLDY    63  57  82 E5        30.07S
BUFFALO        CLOUDY    63  54  73 NE3       30.09R
MAPLE LAKE     CLOUDY    64  56  77 N5        30.10R
HUTCHINSON     CLEAR     60  55  86 NE6       30.07R
$$
MNZ037-044-045-052-053-240600-
   East Central Minnesota

CITY           SKY/WX    TMP DP  RH WIND       PRES   REMARKS
PRINCETON      CLOUDY    61  52  72 N12       30.12R
MORA           RAIN      54  50  87 CALM      30.14R
CAMBRIDGE      LGT RAIN  61  50  67 NE7       30.11R
RUSH CITY      RAIN      55  52  89 N3        30.12R
MOOSE LAKE     CLOUDY    52  50  93 CALM      30.08F FOG
HINCKLEY       HVY RAIN  54  54 100 SW5       30.11S
CLOQUET        CLOUDY    52  48  87 CALM      30.10S
MCGREGOR       PTCLDY    54  52  94 CALM      30.11R
$$
MNZ071>073-080-081-089-090-097-098-240600-
   Southwest Minnesota

CITY           SKY/WX    TMP DP  RH WIND       PRES   REMARKS
MONTEVIDEO     MOCLDY    59  55  88 SE7       30.04R
GRANITE FALLS  CLEAR     61  56  84 E5        30.05R
CANBY          CLEAR     60  57  91 CALM      30.03R
MARSHALL       CLOUDY    64  59  83 SE8       30.02R
REDWOOD FALLS  PTCLDY    61  56  83 E7        30.04R
OLIVIA         PTCLDY    63  52  67 E3        30.04S
PIPESTONE      PTCLDY    64  61  88 S7        30.02S
WINDOM         CLOUDY    64  55  72 CALM      30.04S
WORTHINGTON    CLOUDY    65  60  84 S6        30.04S
JACKSON        CLOUDY    63  57  82 CALM      30.05R
TRACY          CLOUDY    64  60  85 E3        30.04R
SLAYTON        MOCLDY    61  58  90 SE5       30.04S
$$
MNZ065>067-074>077-082>085-091>093-240600-
   South Central Minnesota

CITY           SKY/WX    TMP DP  RH WIND       PRES   REMARKS
MANKATO        CLEAR     61  56  83 E5        30.06R
NEW ULM        MOCLDY    63  54  72 E6        30.05R
ST JAMES       PTCLDY    61  57  88 E3        30.05S
FAIRMONT       CLOUDY    61  57  87 SE3       30.05S
GLENCOE        MOCLDY    61  58  91 CALM      30.07R
FARIBAULT      CLEAR     55  54  94 CALM      30.07S
OWATONNA       CLEAR     55  54  94 CALM      30.07S
WASECA         CLEAR     55  54  94 CALM      30.07S
ALBERT LEA     CLEAR     57  57 100 CALM      30.06S
$$
MNZ078>079-086>088-094>096-240600-
   Southeast Minnesota

CITY           SKY/WX    TMP DP  RH WIND       PRES   REMARKS
ROCHESTER      CLEAR     58  54  86 SE3       30.09R
RED WING       PTCLDY    57  54  88 NE3       30.08R
STANTON        CLEAR     56  55  93 CALM      30.07R
DODGE CENTER   CLEAR     54  52  94 CALM      30.08R
WINONA         PTCLDY    55  54  94 NW5       30.08R
AUSTIN         CLEAR     54  52  94 CALM      30.06F
PRESTON        CLEAR     57  53  86 CALM      30.09R
$$
ABBREVIATIONS USED IN REMARKS
   TC - TEMPERATURES IN CELSIUS
  WCI - WIND CHILL INDEX
   HX - HEAT INDEX
  VSB - VISIBILITY
$$




USA.gov is the U.S. government's official web portal to all federal, state and local government web resources and services.